This demonstration page uses our WeatherBlox Daily Observations layout. Learn more.

Left ArrowRight Arrow

40.92945, -100.16068

Hourly Observations for September 24, 2021

Temp ( °F °C ) Dew Point ( °F °C ) Humidity (%) Winds ( mph kmh ) Pressure ( in mb ) Visibility ( mi km ) Precip ( " mm )
12:15 am 00:15 Clear 53 11.7 48 8.7 82 82 NW 8 13 29.91 1013 10 16 N/A
12:35 am 00:35 Clear 52 11.2 47 8.5 84 84 WNW 8 13 29.91 1013 10 16 N/A
12:55 am 00:55 Clear 53 11.6 49 9.5 87 87 W 7 11 29.91 1013 10 16 N/A
1:15 am 01:15 Clear 52 11.1 49 9.2 88 88 WNW 7 11 29.91 1013 10 16 N/A
1:35 am 01:35 Clear 53 11.7 49 9.3 85 85 WNW 10 17 29.91 1013 10 16 N/A
1:55 am 01:55 Clear 55 12.5 48 8.7 78 78 WNW 9 15 29.90 1012 10 16 N/A
2:15 am 02:15 Clear 54 12.4 47 8.5 77 77 WNW 8 13 29.90 1013 10 16 N/A
2:35 am 02:35 Clear 54 12 47 8.5 79 79 W 5 7 29.91 1013 10 16 N/A
2:55 am 02:55 Clear 54 12.2 47 8.6 79 79 W 8 13 29.91 1013 10 16 N/A
3:15 am 03:15 Clear 54 12.3 47 8.5 78 78 WNW 8 13 29.91 1013 10 16 N/A
3:35 am 03:35 Clear 54 12.4 47 8.5 77 77 W 10 17 29.91 1013 10 16 N/A
3:55 am 03:55 Clear 54 12.4 47 8.3 76 76 WNW 8 13 29.91 1013 10 16 N/A
4:15 am 04:15 Clear 53 11.6 47 8.2 80 80 WNW 10 17 29.92 1013 10 16 N/A
4:35 am 04:35 Clear 53 11.7 47 8.1 79 79 WNW 10 17 29.93 1013 10 16 N/A
4:55 am 04:55 Clear 53 11.6 47 8.1 79 79 NW 7 11 29.93 1013 10 16 N/A
5:15 am 05:15 Clear 52 10.9 46 8 82 82 WNW 7 11 29.94 1014 10 16 N/A
5:35 am 05:35 Clear 51 10.6 46 8 84 84 WNW 10 17 29.96 1014 10 16 N/A
5:55 am 05:55 Clear 52 11 46 8 82 82 NW 8 13 29.96 1015 10 16 N/A
6:15 am 06:15 Clear 52 11.1 46 8 81 81 W 9 15 29.97 1015 10 16 N/A
6:35 am 06:35 Clear 54 12.1 47 8.1 77 77 W 8 13 29.97 1015 10 16 N/A
6:55 am 06:55 Clear 54 12.1 46 8 76 76 WNW 8 13 29.99 1016 10 16 N/A
7:15 am 07:15 Clear 56 13.1 47 8.1 72 72 NNW 9 15 29.98 1015 10 16 N/A
7:35 am 07:35 Sunny 60 15.7 46 7.7 59 59 NNW 10 17 29.98 1015 10 16 N/A
7:55 am 07:55 Sunny 60 15.8 46 7.7 59 59 N 9 15 29.99 1016 10 16 N/A
8:15 am 08:15 Sunny 61 16.3 46 7.5 56 56 N 10 17 29.99 1016 10 16 N/A
8:35 am 08:35 Sunny 62 16.8 46 7.5 54 54 N 12 19 30.00 1016 10 16 N/A
8:55 am 08:55 Sunny 63 17.2 46 7.5 53 53 N 10 17 30.00 1016 10 16 N/A
9:15 am 09:15 Sunny 63 17.4 45 7.4 52 52 N 10 17 30.00 1016 10 16 N/A
9:35 am 09:35 Sunny 65 18.5 46 7.6 49 49 N 12 19 29.99 1016 10 16 N/A
9:55 am 09:55 Sunny 65 18.4 45 7.1 48 48 N 10 17 30.01 1016 10 16 N/A
10:15 am 10:15 Sunny 65 18.6 45 7.1 47 47 N 3 6 30.02 1017 10 16 N/A
10:35 am 10:35 Partly Cloudy 66 18.7 45 7.4 48 48 N 3 6 30.02 1017 10 16 N/A
10:55 am 10:55 Sunny 67 19.4 45 7.3 46 46 N 12 19 30.02 1016 10 16 N/A
11:15 am 11:15 Partly Cloudy 68 20.1 45 7 43 43 N 22 35 30.03 1017 10 16 N/A
11:35 am 11:35 Partly Cloudy 69 20.5 43 6.2 40 40 N 17 28 30.02 1017 10 16 N/A
11:55 am 11:55 Sunny 69 20.5 43 6.2 40 40 N 16 26 30.03 1017 10 16 N/A
12:15 pm 12:15 Sunny 68 20.1 45 7.2 43 43 N 21 33 30.04 1017 10 16 N/A
12:35 pm 12:35 Sunny 69 20.3 47 8.6 47 47 N 14 22 30.04 1017 10 16 N/A
12:55 pm 12:55 Sunny 67 19.6 48 9 51 51 N 14 22 30.06 1018 10 16 N/A
1:15 pm 13:15 Sunny 68 19.8 49 9.7 52 52 N 13 20 30.05 1018 10 16 N/A
1:35 pm 13:35 Sunny 67 19.7 49 9.4 52 52 N 10 17 30.04 1017 10 16 N/A
1:55 pm 13:55 Sunny 69 20.4 49 9.3 49 49 N 15 24 30.05 1018 10 16 N/A
2:15 pm 14:15 Sunny 68 19.8 49 9.3 51 51 N 13 20 30.05 1018 10 16 N/A
2:35 pm 14:35 Sunny 67 19.5 49 9.4 52 52 NNE 12 19 30.06 1018 10 16 N/A
2:55 pm 14:55 Sunny 70 20.9 49 9.7 49 49 NNE 13 20 30.04 1017 10 16 N/A
3:15 pm 15:15 Sunny 66 19.1 49 9.2 53 53 N 10 17 30.06 1018 10 16 N/A
3:35 pm 15:35 Partly Cloudy 66 19 49 9.2 53 53 NNE 8 13 30.06 1018 10 16 N/A
3:55 pm 15:55 Partly Cloudy 66 19.1 48 8.8 51 51 N 8 13 30.06 1018 10 16 N/A
4:15 pm 16:15 Mostly Cloudy 65 18.3 47 8.5 53 53 N 7 11 30.08 1019 10 16 N/A
4:35 pm 16:35 Cloudy 64 17.9 48 9 56 56 N 7 11 30.08 1019 10 16 N/A
4:55 pm 16:55 Cloudy 64 17.7 48 9.1 57 57 NNW 9 15 30.08 1019 10 16 N/A
5:15 pm 17:15 Cloudy 64 17.5 49 9.3 59 59 NNW 6 9 30.08 1019 10 16 N/A
5:35 pm 17:35 Mostly Cloudy 64 17.8 47 8.2 54 54 N 8 13 30.08 1019 10 16 N/A
5:55 pm 17:55 Partly Cloudy 64 17.5 47 8.3 55 55 N 5 7 30.08 1019 10 16 N/A
6:15 pm 18:15 Sunny 63 17 49 9.3 61 61 NNW 3 6 30.10 1019 10 16 N/A
6:35 pm 18:35 Mostly Cloudy 62 16.9 49 9.4 61 61 NW 3 6 30.11 1020 10 16 N/A
6:55 pm 18:55 Mostly Cloudy 62 16.5 50 10 66 66 WNW 3 6 30.10 1019 10 16 N/A
7:15 pm 19:15 Cloudy with Haze 61 16.1 49 9.7 66 66 WNW 5 7 30.12 1020 5 8 N/A
7:35 pm 19:35 Mostly Cloudy 58 14.3 50 10 76 76 WSW 5 7 30.13 1020 7 11 N/A
7:55 pm 19:55 Partly Cloudy 56 13.1 49 9.5 79 79 WSW 5 7 30.14 1021 10 16 N/A
8:15 pm 20:15 Clear 55 12.6 49 9.3 80 80 WSW 3 6 30.15 1021 10 16 N/A
8:35 pm 20:35 Clear 54 12 49 9.2 83 83 SW 5 7 30.15 1021 7 11 N/A
8:55 pm 20:55 Clear 50 10 47 8.1 88 88 N N/A 30.17 1022 10 16 N/A
9:15 pm 21:15 Clear 51 10.4 47 8.4 88 88 N N/A 30.17 1022 10 16 N/A
9:35 pm 21:35 Partly Cloudy 50 10.1 47 8.3 89 89 SW 3 6 30.17 1022 10 16 N/A
9:55 pm 21:55 Partly Cloudy 49 9.4 46 7.9 90 90 N N/A 30.18 1022 10 16 N/A
10:15 pm 22:15 Clear 47 8.1 44 6.9 92 92 N N/A 30.20 1023 10 16 N/A
10:35 pm 22:35 Clear 48 8.7 46 7.6 93 93 N N/A 30.19 1022 10 16 N/A
10:55 pm 22:55 Clear 47 8.6 45 7.2 91 91 N N/A 30.19 1022 10 16 N/A
11:15 pm 23:15 Clear 44 6.9 42 5.8 93 93 N N/A 30.21 1023 10 16 N/A
11:35 pm 23:35 Clear 45 7.2 43 6.3 94 94 N N/A 30.21 1023 7 11 N/A
11:55 pm 23:55 Clear 45 7.4 44 6.7 95 95 N N/A 30.21 1023 10 16 N/A

Powered by AerisWeather